Regional Weather Roundup
Issued by NWS Albany, NY

Home | Current Version | Previous Version | Graphics & Text | Print | Product List | Glossary Off
Versions: 1 2 3 4 5 6 7 8 9 10 11 12 13 14 15 16 17 18 19 20 21 22 23 24 25 26 27 28 29 30 31 32 33 34 35 36 37 38 39 40 41 42 43 44 45 46 47 48 49 50

760
ASUS41 KALY 282210
RWRALY

NEW YORK STATE HOURLY WEATHER ROUNDUP
NATIONAL WEATHER SERVICE ALBANY NY
600 PM EDT WED JUN 28 2017

NOTE: "FAIR" INDICATES FEW OR NO CLOUDS BELOW 12,000 FEET WITH NO
SIGNIFICANT WEATHER AND/OR NO OBSTRUCTIONS TO VISIBILITY.

NYZ032-033-038>043-046>054-057>066-NYZ062>081-082-084-282300-
EAST


CITY           SKY/WX    TMP DP  RH WIND       PRES   REMARKS
ALBANY         MOSUNNY   75  49  39 NW13      30.04F
GLENS FALLS    MOSUNNY   73  53  49 CALM      30.01F
POUGHKEEPSIE   MOSUNNY   78  47  33 W8        30.05S
NEWBURGH       MOSUNNY   77  52  41 NW12      30.08F
MONTGOMERY     MOSUNNY   78  47  33 W12       30.07S
WHITE PLAINS   MOSUNNY   77  45  32 W10       30.08S
ISLIP          MOSUNNY   74  56  53 SW18      30.08R
NEW YORK CITY  MOSUNNY   80  50  34 W8        30.07S
CENTRAL PARK   MOSUNNY   77  48  35 VRB5      30.11S
$$

NYZ005>009-017-018-044>046-055-056-282300-
CENTRAL


CITY           SKY/WX    TMP DP  RH WIND       PRES   REMARKS
FULTON         SUNNY     74  53  48 NW6       30.04F
SYRACUSE       PTSUNNY   73  54  51 SW7       30.02F
ROME           MOSUNNY   74  50  42 SW12      30.04F
ELMIRA         MOSUNNY   75  51  43 W6        30.06F
BINGHAMTON     CLOUDY    71  47  42 NW9       30.09F
MONTICELLO     MOSUNNY   72  48  43 NW9       30.11F
$$

NYZ026>034-041>043-087-282300-
NORTH


CITY           SKY/WX    TMP DP  RH WIND       PRES   REMARKS
WATERTOWN      SUNNY     71  52  50 SW10      30.03S
FORT DRUM      NOT AVBL
OGDENSBURG     FAIR      74  54  48 SW14G20   29.99S
MASSENA        PTSUNNY   68  55  63 SW6       30.00S
SARANAC LAKE   MOSUNNY   66  46  48 SW12G21   30.02F
PLATTSBURGH    SUNNY     76  48  37 VRB5      29.97S
$$

NYZ001>004-010>016-019>021-085-282300-
WEST


CITY           SKY/WX    TMP DP  RH WIND       PRES   REMARKS
NIAGARA FALLS  CLOUDY    73  47  39 SW9       30.05F
BUFFALO        CLOUDY    70  46  42 SW13      30.06F
DUNKIRK        CLOUDY    71  48  43 SW8       30.08F
JAMESTOWN      CLOUDY    70  48  46 W13       30.10F
WELLSVILLE     CLOUDY    69  48  47 SW8       30.13S
ROCHESTER      PTSUNNY   75  46  35 W15G22    30.05F
PENN YAN       MOSUNNY   76  49  38 VRB6      30.06F
$$

             KEY
       WCI = WIND CHILL INDEX
       VSB = VISIBILITY
       HX  = HEAT INDEX
$$




USA.gov is the U.S. government's official web portal to all federal, state and local government web resources and services.